Location: Aldenham
(51.6667°N, 0.3500°W)
Time: 15:27:09
(UTC+00:00)

Transit 2A Rocket - Pass Details

Date: 15 February 2026
Orbit: 583 x 900 km, 66.7° (Epoch: 10 March)

Event Time Altitude Azimuth Distance (km) Brightness Sun altitude
Rises 22:50:02 0° 317° (NW) 3,481 9.1 -47.1°
Reaches altitude 10° 22:53:02 10° 329° (NNW) 2,505 8.2 -47.4°
Enters shadow 22:53:13 11° 330° (NNW) 2,451 8.1 -47.4°
